Location: Carrières
(48.9495°N, 2.0407°E)
Time: 18:41:07
(UTC+00:00)

SR - Pass Details

Date: 24 April 2024
Orbit: 579 x 860 km, 66.7° (Epoch: 22 May)

Event Time Altitude Azimuth Distance (km) Brightness Sun altitude
Exits shadow 03:08:33 - 280° (W) 2,536 ? -14.2°
Reaches altitude 10° 03:09:28 10° 287° (WNW) 2,286 ? -14.0°
Maximum altitude 03:12:59 18° 330° (NNW) 1,744 ? -13.6°
Drops below altitude 10° 03:16:20 10° 13° (NNE) 2,162 ? -13.2°
Sets 03:19:19 0° 33° (NNE) 3,023 ? -12.8°
